Temperature
21 21 21 21 23 21 17 15 15 14 13 11 10 11 12 11 12 10 5 5 6 7 7 7 7 7 7 8 8 8 8 8 7 7 7 7 7 7 7 7 7 7 7 8 8 9 10 10 11
21 21 21 22 24 22 17 15 15 14 11 10 10 10 10 8 6 5 4 5 6 7 7 7 7 7 7 7 7 7 7 7 6 6 6 6 6 6 6 6 6 6 6 6 6 7 8 8 9
21 21 20 22 21 20 17 15 14 12 10 10 9 8 8 7 5 4 5 6 6 7 7 7 7 7 7 7 6 6 5 5 5 5 5 5 5 5 5 5 5 5 5 5 5 6 6 7 8
21 21 20 20 17 14 16 14 12 11 10 9 10 8 6 4 4 4 5 6 6 7 7 7 7 7 6 6 6 5 5 4 4 5 5 5 5 5 5 5 5 4 4 4 4 5 5 5 6
21 21 21 18 16 14 14 13 12 13 11 10 9 9 6 3 4 4 5 6 6 7 7 7 7 7 6 5 5 5 4 4 4 4 4 4 4 4 4 4 4 4 4 4 4 3 4 4 5
21 23 22 19 15 14 13 11 12 12 11 9 9 9 6 3 3 4 5 6 6 6 7 7 6 6 5 5 4 4 4 4 4 4 4 4 4 4 4 4 4 4 4 3 3 3 3 3 3
21 21 20 18 16 14 13 11 12 12 11 9 9 9 5 4 3 4 5 5 6 6 6 6 6 5 5 4 4 4 4 4 4 4 4 4 4 4 3 3 3 3 3 3 3 3 3 3 3
18 20 18 18 17 15 12 10 10 11 10 7 8 9 7 4 3 4 4 5 5 6 6 6 5 5 4 4 4 4 4 4 4 4 3 3 3 3 3 3 3 2 2 2 2 2 2 3 3
18 21 19 18 17 15 11 10 8 7 7 6 6 7 6 4 4 3 3 4 4 5 5 5 5 4 4 3 3 3 3 3 3 3 3 3 3 2 2 2 2 2 2 1 1 1 1 2 2
19 21 17 15 16 14 11 11 9 8 8 7 6 5 4 4 3 3 3 3 3 4 4 5 4 4 3 3 3 3 3 2 2 2 2 2 1 1 1 1 1 1 1 1 0 0 0 0 0
15 16 13 12 12 12 10 10 9 10 10 9 7 5 4 4 3 3 3 3 3 4 4 4 3 3 2 2 2 2 2 1 1 1 1 0 0 0 -0 -0 -0 -1 -1 -1 -1 -1 -2 -2 -2
14 12 12 11 10 11 10 9 9 10 10 8 7 5 4 4 4 3 3 3 3 3 4 3 2 2 2 2 1 1 1 0 0 -0 -1 -1 -1 -2 -2 -2 -3 -3 -3 -3 -4 -4 -4 -4 -4
14 11 10 9 9 9 9 9 10 9 7 7 6 5 4 4 4 3 3 3 3 3 3 2 2 2 1 1 1 0 -0 -0 -1 -1 -2 -2 -3 -4 -5 -5 -5 -6 -6 -6 -6 -6 -6 -6 -6
12 11 10 10 10 9 10 9 9 8 6 6 5 5 4 4 3 3 3 2 3 3 2 2 1 1 1 1 0 -0 -1 -1 -2 -2 -3 -4 -5 -6 -6 -7 -7 -7 -8 -8 -8 -8 -8 -8 -7
12 13 12 11 10 9 10 10 10 8 6 6 5 5 4 4 3 3 2 3 2 2 2 1 1 1 1 0 0 -1 -1 -2 -2 -3 -4 -5 -6 -6 -7 -8 -8 -9 -9 -9 -9 -9 -9 -9 -9
15 16 17 13 11 9 11 15 12 7 7 7 6 6 4 4 3 2 2 2 2 2 1 1 1 0 0 0 -0 -1 -2 -2 -3 -4 -5 -6 -6 -7 -8 -9 -9 -10 -10 -10 -10 -10 -10 -10 -10
18 19 18 15 12 11 11 15 11 7 7 7 7 6 5 4 3 2 2 2 2 1 1 1 0 0 0 -0 -1 -1 -2 -3 -4 -5 -6 -6 -7 -8 -9 -10 -10 -11 -11 -11 -11 -11 -11 -11 -11
19 19 18 18 14 12 12 14 11 7 7 8 7 6 5 5 4 2 2 2 2 1 1 0 -0 -0 -0 -1 -1 -2 -3 -3 -4 -5 -6 -7 -8 -9 -10 -11 -11 -11 -11 -11 -11 -11 -11 -11 -11
18 18 18 17 13 12 13 13 13 8 7 8 8 7 6 5 4 2 2 1 1 1 0 -0 -1 -1 -1 -1 -2 -2 -3 -4 -5 -6 -7 -8 -9 -10 -11 -11 -11 -11 -12 -12 -12 -12 -12 -12 -12
17 18 18 16 12 12 13 13 14 11 8 8 8 7 7 6 4 2 2 1 1 1 0 -0 -1 -1 -2 -2 -3 -3 -4 -5 -7 -8 -8 -9 -9 -10 -11 -11 -11 -12 -12 -12 -12 -12 -12 -12 -12
17 17 17 16 13 11 12 16 13 10 8 7 7 7 7 6 4 2 2 1 1 1 0 -0 -1 -1 -2 -2 -3 -4 -5 -6 -7 -8 -8 -9 -10 -10 -11 -11 -11 -12 -12 -12 -12 -12 -13 -13 -13
18 15 14 14 14 16 14 18 17 12 10 8 7 7 6 6 4 3 1 1 1 1 0 -1 -1 -2 -2 -3 -3 -4 -6 -7 -7 -8 -9 -9 -10 -10 -11 -11 -11 -12 -12 -12 -12 -13 -13 -13 -13
15 13 13 13 14 15 14 16 19 12 13 13 10 8 7 5 4 2 1 1 1 1 -0 -1 -1 -2 -2 -3 -4 -4 -6 -7 -7 -9 -9 -10 -10 -10 -11 -11 -11 -12 -12 -12 -12 -12 -13 -13 -13
13 13 13 13 15 17 16 16 19 17 16 15 11 9 6 4 3 2 1 2 1 0 -0 -1 -1 -2 -3 -3 -4 -5 -6 -7 -8 -9 -10 -10 -10 -10 -10 -11 -11 -11 -11 -11 -12 -12 -12 -12 -12
15 17 19 19 19 19 14 15 18 17 14 12 11 8 6 3 2 1 1 1 1 0 -1 -1 -2 -2 -3 -3 -4 -5 -6 -7 -8 -9 -10 -11 -11 -10 -10 -10 -10 -10 -11 -11 -11 -11 -11 -12 -12
15 17 18 18 18 18 15 16 19 14 10 8 7 6 4 2 1 1 1 1 0 -0 -1 -1 -2 -2 -3 -4 -5 -5 -7 -7 -8 -10 -10 -11 -11 -11 -10 -10 -10 -10 -10 -10 -11 -11 -11 -11 -11
16 16 14 16 16 15 18 17 18 11 10 8 7 5 3 2 1 1 1 1 0 -0 -1 -1 -2 -2 -3 -4 -5 -6 -7 -8 -8 -9 -10 -11 -11 -11 -11 -11 -11 -10 -10 -10 -11 -11 -11 -10 -10
14 15 15 16 16 17 18 18 18 18 17 13 9 6 4 2 1 1 1 1 0 -0 -1 -1 -2 -3 -3 -4 -5 -6 -7 -7 -8 -9 -10 -11 -11 -11 -11 -11 -11 -11 -11 -11 -11 -11 -11 -10 -10
13 13 14 15 15 16 17 19 18 18 17 14 12 8 5 2 1 1 1 1 0 -0 -1 -2 -2 -3 -4 -4 -5 -6 -7 -7 -8 -9 -10 -11 -11 -11 -11 -11 -11 -11 -11 -11 -11 -11 -11 -10 -10
14 15 15 16 16 14 15 17 18 15 13 12 11 8 5 3 2 1 1 1 0 -0 -1 -2 -3 -3 -4 -4 -5 -6 -7 -8 -8 -9 -10 -11 -11 -11 -12 -12 -11 -11 -11 -11 -11 -11 -11 -11 -11
Wind_Speed
5 3 1 2 3 7 7 6 6 8 5 6 7 6 7 7 5 6 4 9 12 14 16 19 22 22 23 25 25 26 27 27 28 28 29 29 29 29 29 29 29 29 28 28 28 28 28 28 28
4 1 1 2 2 6 6 6 8 7 10 9 7 6 7 7 6 6 4 9 11 13 15 18 21 21 23 24 25 25 26 26 27 28 28 29 29 29 29 29 29 28 28 28 28 28 28 28 28
4 4 4 5 5 5 8 9 12 12 9 5 5 5 5 6 5 4 5 8 10 12 14 18 21 21 22 23 24 24 25 25 26 27 27 28 28 29 28 29 29 28 28 28 28 28 28 28 28
2 4 5 7 10 6 7 13 13 12 6 4 6 8 5 5 3 5 6 7 10 12 15 18 21 21 21 22 23 23 24 24 25 26 27 27 28 28 28 28 28 28 28 28 28 28 28 28 28
2 3 6 8 8 7 9 11 11 7 6 6 7 7 7 6 7 7 7 8 10 12 14 16 19 20 20 22 22 23 23 24 25 26 27 27 27 28 28 28 28 28 28 28 28 28 28 28 28
3 3 5 8 8 8 8 7 8 6 7 7 7 9 7 8 7 6 6 7 10 11 12 14 17 18 19 20 21 21 22 23 24 25 26 27 26 27 27 27 28 28 29 29 29 29 28 28 28
4 5 6 10 10 8 7 6 7 7 8 7 7 8 8 9 7 6 5 6 8 10 12 14 15 16 16 17 19 20 21 22 22 23 25 26 25 25 26 26 28 28 29 29 29 29 29 29 28
4 7 8 8 10 8 9 6 4 5 7 6 5 6 8 13 9 6 4 5 6 9 11 14 15 15 15 14 16 18 19 21 21 21 24 24 22 23 23 24 27 27 28 28 28 29 30 29 28
0 4 6 8 9 9 12 8 5 4 8 5 3 2 9 15 10 5 3 4 6 8 10 12 14 15 15 14 14 16 17 19 20 20 23 22 20 20 21 24 26 26 27 27 27 28 28 28 25
4 4 5 3 4 10 14 9 10 8 9 7 7 9 15 13 10 6 3 5 7 9 10 11 14 14 14 13 13 14 15 16 17 18 20 19 19 18 20 22 23 25 25 25 24 26 25 22 20
7 7 7 5 6 12 12 10 10 10 8 9 14 18 17 13 9 6 4 4 6 7 9 10 12 13 14 12 12 12 12 13 15 17 18 19 18 17 18 19 20 21 22 20 23 22 20 20 21
8 8 7 8 8 10 11 11 8 10 2 7 15 19 17 13 10 7 4 4 5 7 8 9 10 12 13 13 11 11 12 12 13 15 17 17 16 17 18 17 19 19 18 20 20 19 21 22 22
7 7 7 9 10 9 9 8 6 7 4 12 17 17 15 13 10 7 4 3 4 6 8 9 9 11 12 12 11 11 12 13 14 13 15 17 16 16 18 18 18 19 19 19 20 21 22 22 21
10 12 11 8 8 6 7 5 6 7 11 16 17 16 14 13 11 8 6 3 3 5 7 8 9 11 12 12 12 11 12 13 13 13 15 16 16 17 18 18 18 19 19 19 21 22 21 20 19
10 9 8 5 4 5 6 6 8 11 16 17 17 15 14 13 11 9 6 3 2 4 5 7 9 11 12 12 12 11 12 13 12 13 14 16 17 18 19 18 18 19 20 21 20 21 20 18 19
5 5 4 5 5 5 6 6 8 15 18 18 16 15 14 13 12 9 7 4 2 2 4 6 8 11 12 13 12 11 12 13 12 13 14 16 18 19 19 17 18 19 20 20 18 17 16 17 17
4 3 3 4 7 6 7 6 7 15 18 17 17 16 15 14 13 11 8 6 2 1 4 6 8 11 12 13 12 11 11 12 12 12 13 17 18 19 19 17 18 20 19 18 17 15 16 18 18
1 2 3 3 6 8 10 11 7 14 18 18 17 16 16 15 14 12 10 7 3 0 3 6 8 10 12 11 11 10 11 11 11 12 14 17 17 19 18 17 19 19 17 15 16 18 18 17 18
1 3 5 2 3 6 12 14 10 14 18 18 17 17 17 16 13 11 10 8 4 1 3 5 8 9 10 8 9 9 10 10 11 12 15 16 17 18 18 17 18 18 15 16 19 18 20 18 17
3 5 5 2 2 5 10 15 11 13 19 19 18 18 18 16 13 12 11 9 5 2 3 5 7 8 9 9 9 9 10 9 10 12 14 15 17 18 17 18 18 18 16 18 19 19 17 17 15
3 4 5 6 2 4 8 7 5 5 11 15 17 17 17 16 16 14 12 9 6 2 2 4 6 7 9 10 9 9 8 8 8 11 11 15 18 18 18 19 19 20 18 16 19 19 20 17 17
2 1 4 5 6 3 3 5 3 4 7 12 16 17 17 16 15 14 12 10 6 2 1 3 5 7 8 9 9 11 10 11 12 11 11 17 17 18 18 19 20 20 18 18 18 18 17 18 16
2 1 3 3 3 4 1 5 2 2 5 8 12 15 15 14 14 14 12 9 5 2 1 3 5 6 7 9 10 10 10 10 10 12 13 14 16 17 18 20 20 20 18 18 19 19 18 15 15
1 2 3 3 3 2 1 4 4 2 3 2 4 9 12 13 13 13 11 8 6 3 2 3 4 5 7 8 9 10 12 13 13 14 13 13 12 15 18 21 20 20 19 19 19 18 19 16 16
2 5 4 3 3 3 1 5 6 1 4 5 5 5 10 13 14 14 12 9 6 4 3 3 4 6 7 8 9 10 11 12 13 13 13 14 12 13 17 21 20 20 21 21 20 16 16 16 16
1 3 4 5 6 6 2 5 5 1 3 5 6 6 10 14 14 14 12 9 7 5 3 3 4 5 7 8 9 9 10 9 9 12 12 13 12 13 19 21 21 21 21 20 18 14 14 13 14
2 2 2 2 3 6 5 6 7 4 7 9 9 9 12 15 15 14 12 9 7 5 3 3 4 5 7 8 9 9 10 10 11 12 12 11 13 15 19 20 19 20 20 19 16 12 14 13 12
3 4 3 2 4 6 9 7 5 6 6 8 12 13 14 15 15 14 12 10 7 5 4 3 3 5 6 7 8 8 10 10 11 11 12 13 15 16 17 18 18 18 18 17 15 14 14 14 13
5 4 3 2 3 4 7 7 4 9 7 8 10 12 14 17 17 14 12 10 8 6 5 3 3 5 6 7 8 9 9 10 11 10 12 13 14 16 16 17 16 16 16 16 14 15 15 14 14
4 5 6 4 4 4 5 8 4 8 7 9 10 9 13 16 15 14 12 10 9 7 6 4 4 5 6 6 8 9 9 10 11 11 12 14 14 15 16 17 16 16 15 15 14 14 14 14 14
Wind_Direction
104 130 228 232 92 76 86 90 115 125 100 88 78 80 83 62 41 86 77 14 2 357 354 356 7 10 13 15 16 16 16 15 15 14 13 11 10 8 8 6 4 2 0 358 357 355 353 352 351
84 133 354 30 115 117 103 123 125 111 121 117 90 89 90 84 69 83 52 15 7 5 1 3 10 12 15 16 16 16 16 16 15 13 12 11 9 7 6 5 2 1 359 357 355 353 351 349 348
91 54 52 64 77 100 123 133 125 119 127 130 107 75 81 92 85 77 43 18 14 15 10 9 13 15 17 18 17 17 16 15 14 13 11 9 7 5 4 3 0 359 357 355 354 352 349 347 345
101 75 66 69 85 70 118 136 136 135 131 119 130 110 94 64 76 85 61 31 25 22 17 15 17 18 20 20 18 17 16 14 13 10 8 7 5 2 1 -0 357 356 355 353 352 349 347 345 343
75 90 84 83 88 108 121 136 151 149 140 137 139 120 109 104 104 95 68 40 29 24 20 19 20 21 21 20 18 16 14 12 10 8 6 4 2 359 357 357 354 352 351 349 348 346 344 342 340
87 81 109 120 120 134 144 159 169 154 138 142 143 126 121 135 128 100 71 48 35 26 21 20 21 21 20 19 17 14 13 11 8 6 3 0 358 356 354 354 351 349 348 346 345 342 341 338 337
83 79 104 128 139 158 160 166 184 163 150 148 147 134 137 154 134 115 82 53 38 28 24 21 19 17 15 14 14 12 11 9 6 3 0 357 354 353 351 351 348 346 345 343 341 339 337 335 333
81 102 114 139 153 161 152 143 143 163 139 131 166 159 160 160 147 132 92 54 40 31 27 21 18 14 7 4 8 7 7 6 3 1 358 354 351 349 348 347 345 343 341 339 337 335 334 332 329
110 108 138 155 166 160 160 154 136 122 136 145 161 138 136 143 151 149 121 72 46 35 29 22 16 10 3 358 358 0 2 2 360 358 355 352 349 346 344 342 340 339 337 335 334 333 330 329 325
25 104 117 117 150 157 164 167 155 158 164 164 154 134 137 148 157 153 115 60 39 30 25 20 14 6 359 356 355 357 358 357 357 354 352 348 344 341 339 336 336 335 334 332 331 330 328 327 324
53 87 112 103 115 144 152 157 166 174 188 193 175 157 156 161 164 159 125 69 43 31 24 17 10 1 358 355 354 355 353 351 350 351 349 345 341 338 337 335 333 332 331 331 329 327 327 324 320
86 80 100 118 124 144 153 156 175 195 225 175 164 158 162 170 174 168 141 86 50 33 22 13 4 359 357 354 352 352 351 348 347 345 346 344 339 334 334 330 328 328 326 324 324 321 319 318 314
89 108 93 107 117 129 145 167 181 193 159 150 151 161 172 177 175 167 148 110 53 31 20 10 355 358 355 352 349 350 349 346 342 341 342 342 336 331 328 325 323 322 320 320 320 317 316 313 311
107 112 114 117 121 143 158 169 192 185 159 156 163 174 182 185 183 177 175 143 58 28 15 4 355 356 352 350 349 347 346 342 339 339 338 338 334 329 326 322 321 320 319 318 315 312 312 310 309
119 113 121 139 148 154 172 203 215 172 168 171 179 186 191 194 192 193 180 155 75 27 5 1 352 350 348 347 347 344 343 341 338 336 335 336 335 331 327 322 321 320 320 317 313 311 310 309 308
139 158 180 165 175 169 215 257 174 168 178 185 191 195 199 201 203 196 181 168 126 14 357 357 348 343 346 345 343 342 340 339 336 335 334 337 336 333 329 324 321 321 319 316 314 311 311 310 308
186 228 241 182 194 187 223 259 159 178 190 198 201 204 206 206 206 198 188 180 169 350 352 349 347 343 343 340 339 337 336 336 335 335 335 337 335 333 329 323 320 321 318 315 313 312 311 309 308
187 260 265 257 184 207 233 250 193 191 202 210 210 211 213 214 210 200 190 185 182 261 345 345 345 343 341 339 337 336 336 336 336 334 334 334 333 332 328 322 321 321 317 315 314 312 308 306 306
309 274 286 304 156 226 252 262 243 201 208 218 218 218 219 220 212 194 190 189 193 233 336 344 343 344 344 342 339 337 335 332 331 331 331 330 331 329 326 322 320 319 315 313 311 309 308 307 307
247 275 289 260 183 251 286 277 262 214 213 219 223 223 223 220 206 195 192 193 202 241 333 339 342 341 344 340 331 327 323 321 323 327 328 329 328 326 323 320 318 315 313 310 309 309 306 305 306
255 283 310 309 288 233 297 278 193 205 225 229 233 234 231 223 212 199 194 195 199 227 339 338 336 335 340 338 331 328 325 324 332 333 330 328 325 322 320 318 317 313 312 308 308 307 303 304 303
302 305 292 288 288 297 330 312 166 190 228 230 230 229 229 222 215 200 191 190 192 186 330 322 327 331 339 338 336 336 332 331 332 330 324 324 323 321 320 319 318 314 311 308 307 305 301 299 297
322 324 262 256 268 280 248 292 285 173 253 235 228 225 223 216 206 194 185 178 171 170 266 308 319 328 338 339 337 333 329 327 325 326 324 325 324 323 324 324 321 318 315 311 308 305 300 296 292
214 203 178 199 237 274 86 304 294 201 226 229 222 222 215 204 193 182 171 166 171 184 239 293 312 327 338 338 335 332 329 328 326 328 327 327 324 325 328 328 325 322 319 315 311 306 300 295 290
259 306 314 312 311 344 89 273 267 279 239 251 254 234 207 192 183 176 174 178 187 203 234 278 308 329 337 334 332 330 328 326 325 326 325 326 324 326 328 330 327 325 323 320 317 311 305 299 294
34 343 357 324 319 317 260 264 282 203 236 248 254 240 201 191 187 183 181 183 190 203 229 270 311 329 332 329 328 326 326 324 320 322 321 320 321 321 323 326 326 327 328 328 327 321 318 308 299
146 110 14 272 281 284 276 275 284 203 245 238 233 218 203 194 190 186 182 185 192 202 223 269 310 322 324 323 323 321 326 324 319 319 319 319 320 321 322 325 327 328 330 333 334 331 331 326 318
7 142 172 251 310 302 295 282 270 281 274 231 227 220 206 195 191 187 185 187 191 199 216 249 295 311 313 315 319 317 320 320 318 317 319 320 321 323 324 327 328 330 331 334 336 336 340 338 338
160 167 182 180 253 276 299 291 214 260 276 260 248 224 205 196 192 188 185 186 189 197 213 239 277 297 304 311 315 316 319 319 318 317 319 321 321 323 325 327 327 329 330 331 333 336 338 338 339
233 212 194 229 223 228 267 273 215 242 255 256 260 234 207 197 192 186 183 184 192 202 211 229 261 284 298 305 309 314 317 319 319 319 320 321 322 324 326 327 327 328 329 330 330 332 336 337 338
Height
1558 1558 1559 1560 1562 1570 1590 1602 1603 1609 1614 1619 1619 1619 1619 1622 1624 1633 1635 1630 1629 1627 1625 1623 1620 1616 1613 1609 1605 1602 1598 1594 1590 1587 1583 1580 1576 1572 1569 1566 1563 1560 1557 1554 1551 1548 1546 1543 1541
1559 1560 1561 1562 1560 1574 1598 1603 1607 1611 1617 1620 1621 1622 1623 1627 1630 1632 1632 1630 1629 1627 1625 1622 1619 1616 1612 1608 1604 1601 1597 1593 1589 1586 1582 1578 1575 1571 1568 1564 1561 1558 1555 1552 1549 1546 1543 1540 1537
1561 1561 1563 1565 1571 1580 1597 1606 1611 1616 1619 1620 1622 1624 1626 1629 1631 1632 1631 1629 1628 1626 1624 1621 1618 1615 1611 1607 1603 1599 1596 1592 1588 1585 1581 1577 1574 1570 1566 1563 1559 1556 1553 1549 1546 1543 1540 1537 1534
1562 1563 1567 1573 1588 1601 1600 1608 1613 1617 1620 1621 1622 1626 1628 1630 1631 1631 1630 1629 1628 1626 1624 1621 1618 1614 1610 1606 1602 1598 1595 1591 1587 1584 1580 1576 1573 1569 1565 1561 1557 1554 1550 1547 1543 1540 1537 1533 1530
1562 1564 1569 1584 1596 1606 1607 1611 1614 1615 1618 1621 1623 1625 1629 1630 1630 1630 1629 1629 1628 1626 1623 1620 1617 1613 1609 1605 1601 1597 1594 1590 1586 1583 1579 1575 1571 1567 1563 1559 1556 1552 1548 1544 1540 1537 1533 1530 1527
1564 1564 1570 1586 1599 1607 1611 1613 1614 1616 1619 1622 1623 1625 1629 1630 1630 1629 1629 1628 1627 1625 1622 1619 1615 1611 1607 1604 1600 1596 1592 1589 1585 1581 1577 1573 1569 1565 1561 1557 1553 1549 1545 1541 1537 1533 1529 1525 1522
1566 1569 1578 1587 1597 1605 1610 1613 1614 1615 1618 1621 1623 1625 1629 1630 1629 1629 1628 1627 1626 1624 1621 1618 1614 1610 1606 1602 1598 1594 1591 1587 1583 1579 1575 1571 1567 1563 1558 1554 1550 1546 1541 1537 1533 1529 1524 1520 1517
1567 1574 1584 1588 1594 1601 1610 1613 1615 1617 1619 1622 1624 1624 1627 1629 1628 1628 1627 1626 1625 1623 1620 1617 1613 1609 1604 1600 1597 1593 1589 1585 1581 1577 1573 1568 1564 1560 1555 1551 1546 1542 1537 1533 1528 1524 1520 1516 1512
1570 1573 1582 1588 1592 1600 1609 1613 1616 1618 1620 1621 1623 1624 1625 1626 1627 1627 1627 1627 1624 1622 1619 1615 1611 1607 1603 1599 1596 1592 1588 1584 1580 1575 1571 1566 1561 1557 1552 1547 1542 1537 1532 1528 1523 1518 1514 1510 1506
1572 1575 1587 1594 1595 1600 1607 1611 1614 1617 1619 1620 1622 1622 1624 1624 1626 1627 1627 1626 1624 1621 1617 1614 1610 1605 1601 1598 1594 1591 1587 1582 1578 1573 1568 1563 1558 1554 1549 1544 1539 1533 1528 1523 1518 1513 1509 1504 1500
1580 1586 1595 1599 1600 1603 1607 1611 1614 1615 1616 1616 1618 1620 1622 1624 1625 1626 1625 1624 1622 1619 1616 1612 1608 1603 1599 1596 1592 1588 1584 1579 1575 1570 1565 1560 1555 1550 1544 1539 1534 1529 1523 1518 1513 1508 1503 1499 1494
1588 1597 1598 1602 1604 1606 1608 1611 1613 1613 1613 1614 1616 1618 1621 1623 1624 1624 1624 1622 1620 1618 1615 1611 1606 1601 1598 1594 1591 1586 1581 1577 1572 1567 1562 1556 1551 1546 1541 1535 1529 1524 1519 1513 1508 1503 1498 1493 1489
1591 1599 1602 1604 1606 1608 1609 1610 1611 1612 1612 1613 1615 1618 1620 1622 1622 1622 1621 1620 1618 1616 1613 1609 1604 1600 1596 1593 1589 1584 1580 1575 1570 1564 1559 1553 1547 1542 1536 1531 1525 1520 1514 1509 1503 1498 1493 1488 1483
1596 1599 1603 1606 1607 1609 1610 1611 1611 1610 1611 1613 1615 1617 1619 1620 1620 1619 1619 1618 1616 1614 1611 1607 1603 1599 1595 1591 1587 1583 1578 1573 1568 1562 1556 1550 1544 1538 1532 1526 1521 1515 1510 1505 1499 1494 1488 1483 1478
1598 1600 1604 1606 1607 1609 1610 1608 1607 1608 1610 1613 1614 1616 1617 1617 1617 1618 1617 1616 1614 1612 1609 1605 1601 1598 1594 1590 1586 1581 1576 1571 1565 1559 1553 1547 1541 1535 1529 1523 1517 1512 1506 1500 1495 1489 1484 1478 1472
1596 1595 1594 1603 1606 1607 1609 1595 1601 1605 1608 1610 1612 1614 1614 1615 1615 1615 1614 1613 1612 1610 1606 1603 1599 1596 1592 1588 1584 1579 1574 1568 1562 1556 1550 1544 1538 1532 1525 1519 1514 1508 1502 1497 1491 1485 1479 1473 1467
1589 1585 1587 1597 1603 1605 1605 1594 1601 1604 1606 1607 1609 1610 1611 1612 1612 1612 1611 1610 1609 1607 1604 1601 1597 1594 1590 1586 1582 1577 1571 1565 1559 1553 1547 1541 1535 1529 1523 1516 1511 1505 1499 1493 1488 1482 1476 1469 1463
1585 1584 1586 1588 1597 1601 1599 1593 1598 1601 1603 1604 1605 1607 1608 1608 1609 1609 1608 1607 1606 1604 1602 1598 1595 1591 1587 1583 1579 1574 1568 1563 1557 1550 1544 1538 1532 1525 1519 1514 1508 1502 1496 1490 1484 1478 1472 1466 1459
1587 1586 1585 1588 1597 1598 1592 1589 1590 1596 1599 1600 1601 1602 1603 1604 1606 1605 1604 1604 1603 1601 1599 1596 1592 1588 1584 1580 1575 1570 1565 1559 1553 1547 1541 1535 1529 1523 1517 1511 1505 1499 1493 1486 1480 1474 1468 1462 1456
1589 1587 1585 1590 1598 1596 1588 1584 1583 1588 1592 1593 1595 1596 1598 1600 1602 1601 1601 1601 1600 1599 1596 1593 1589 1585 1581 1577 1572 1566 1560 1555 1549 1544 1538 1532 1526 1520 1514 1508 1502 1496 1489 1482 1477 1470 1464 1457 1453
1589 1587 1587 1590 1593 1596 1592 1573 1580 1586 1589 1590 1591 1592 1593 1595 1597 1597 1597 1597 1597 1596 1593 1590 1586 1582 1578 1574 1569 1563 1558 1553 1548 1541 1535 1529 1523 1517 1511 1505 1499 1492 1486 1479 1472 1466 1460 1453 1448
1586 1592 1593 1592 1590 1581 1590 1571 1567 1579 1584 1585 1585 1586 1587 1590 1592 1593 1593 1594 1594 1592 1590 1586 1583 1579 1575 1571 1566 1560 1555 1549 1544 1537 1531 1526 1521 1515 1509 1502 1496 1489 1482 1475 1468 1462 1455 1449 1443
1590 1594 1593 1592 1589 1584 1586 1577 1561 1578 1574 1575 1578 1580 1582 1585 1587 1588 1589 1590 1590 1588 1586 1583 1580 1576 1572 1568 1563 1557 1552 1547 1541 1535 1529 1523 1518 1512 1506 1499 1493 1486 1479 1471 1464 1457 1450 1445 1439
1593 1593 1592 1591 1586 1576 1581 1578 1563 1565 1566 1569 1574 1576 1578 1580 1582 1583 1584 1585 1586 1584 1582 1580 1577 1574 1570 1565 1560 1555 1549 1544 1538 1532 1526 1520 1515 1509 1503 1497 1490 1483 1476 1468 1460 1452 1446 1440 1435
1590 1583 1576 1573 1572 1570 1587 1582 1565 1563 1568 1570 1572 1573 1574 1575 1577 1578 1580 1581 1582 1581 1579 1576 1574 1571 1567 1562 1557 1552 1546 1541 1535 1529 1523 1517 1512 1506 1500 1494 1487 1480 1473 1466 1458 1450 1443 1436 1431
1589 1585 1586 1587 1580 1573 1580 1575 1557 1565 1568 1568 1569 1570 1570 1571 1572 1574 1576 1577 1578 1577 1575 1573 1571 1568 1564 1559 1554 1549 1543 1538 1532 1527 1521 1515 1509 1503 1498 1492 1485 1479 1472 1464 1457 1449 1442 1435 1429
1587 1587 1592 1587 1589 1588 1569 1564 1557 1564 1564 1565 1565 1565 1565 1566 1568 1570 1571 1573 1573 1572 1571 1570 1567 1564 1560 1556 1551 1546 1541 1535 1530 1524 1519 1513 1507 1501 1495 1489 1483 1477 1470 1463 1456 1449 1442 1435 1429
1592 1590 1590 1588 1586 1581 1566 1561 1557 1549 1551 1556 1559 1559 1559 1561 1562 1564 1566 1568 1568 1568 1567 1566 1564 1561 1557 1553 1548 1543 1538 1532 1527 1521 1516 1510 1504 1499 1493 1487 1481 1475 1469 1462 1456 1449 1442 1436 1430
1592 1592 1589 1588 1587 1584 1576 1557 1547 1546 1547 1550 1551 1552 1553 1554 1556 1559 1561 1563 1563 1563 1563 1562 1560 1557 1554 1550 1545 1540 1535 1530 1524 1519 1513 1508 1502 1496 1490 1484 1478 1473 1467 1461 1455 1449 1442 1436 1430
1587 1584 1585 1583 1582 1586 1580 1560 1543 1545 1547 1547 1547 1547 1547 1549 1551 1554 1556 1558 1558 1559 1559 1558 1556 1554 1551 1547 1542 1538 1532 1527 1522 1517 1511 1505 1499 1494 1488 1482 1476 1470 1465 1459 1453 1447 1441 1435 1429